Location: Marcé
(47.5801°N, 0.3280°W)
Time: 11:45:15
(UTC+01:00)

deb Explorer IX - Pass Details

Date: 03 December 2021
Orbit: 544 x 1082 km, 38.8° (Epoch: 17 January)

Event Time Altitude Azimuth Distance (km) Brightness Sun altitude
Rises 15:04:32 0° 258° (WSW) 2,740 ? 14.1°
Reaches altitude 10° 15:07:19 10° 240° (WSW) 1,813 ? 13.8°
Maximum altitude 15:10:13 19° 195° (SSW) 1,335 ? 13.6°
Drops below altitude 10° 15:13:07 10° 149° (SSE) 1,812 ? 13.3°
Sets 15:15:54 0° 131° (SE) 2,739 ? 13.0°
